Fort Nelson Airport
CYYE : now visible

Airfield :











YOU CAN JOIN US ON...

 
LOGIN :

Register | Disclaimer

   EN    FR    IT 

 









Legend :    VFR   Marginal VFR   IFR   Intensive IFR   Very Intensive IFR
Visi :
Ceiling :
>= 8 km
>= 3000ft
5 to 8 km
1000 to 3000 ft
1500m to 5 km
500 to 1000 ft
800 to 1500m
200 to 500 ft
< 800m
< 200 ft
Symbols :   Thunderstorms  Fog  Heavy snow  Heavy precipitations  Wind > 20 kt






- Airport Elevation : 1253 ft
- IATA code : YYE


CYYE - Fort Nelson

CURRENT METAR :
  • 311900Z 13003KT 090V180 30SM FEW048 27/14 A3013 RMK CU1 CU TR SLP206 DENSITY ALT 2700FT

EXPIRED METARs :
  • 311800Z 13003KT 100V170 30SM SKC 25/14 A3013 RMK SLP207 DENSITY ALT 2500FT
  • 311700Z 16004KT 130V240 30SM SKC 22/13 A3013 RMK SLP208 DENSITY ALT 2200FT

TAF TAF CYYE
Valid from the 31 at 19:00 until the 01 at 07:00 UTC


311838Z 3119/0107 VRB03KT P6SM SKC
FM312100 VRB03KT P6SM SCT060 RMK NXT FCST BY 010100Z
CZEG FIR / North America



MET'MAP, your aeronautical weather chart ! - Copyright ORBIFLY December 2007 - Disclaimer

ORBIFLY MET'MAP TEAM :

Programming & Development : Alexandra Zaïnal
Concept & original design : Baudouin d'Aumeries
Assistance for programming : Marc-Olivier Méhu
Technical & hardware support : Manuel Goepfert

Contact : metmap@orbifly.com




SOURCES & CREDITS :

   NOAA       Earth
Advisory